Location: Campolattaro
(41.2833°N, 14.7333°E)
Time: 00:36:01
(UTC+00:00)

Okean 1-7 Rocket - Pass Details

Date: 19 May 2025
Orbit: 611 x 643 km, 82.5° (Epoch: 23 June)

Event Time Altitude Azimuth Distance (km) Brightness Sun altitude
Rises 18:55:12 0° 351° (N) 2,885 7.7 -7.0°
Reaches altitude 10° 18:57:25 10° 351° (N) 1,975 6.8 -7.3°
Maximum altitude 19:01:48 83° 264° (W) 622 3.6 -8.0°
Drops below altitude 10° 19:06:09 10° 176° (S) 1,965 5.8 -8.7°
Enters shadow 19:08:21 - 176° (S) 2,868 6.6 -9.0°
